Weather History for St. Petersburg Airport, FL

Change the Weather History Date:

Wednesday, April 23, 2014

  Actual Average Record
Temperature  
Mean Temperature 70 °F -  
Max Temperature 78 °F 83 °F 88 °F (1968)
Min Temperature 62 °F 67 °F 56 °F (1993)
Cooling Degree Days 4    
Growing Degree Days 20 (Base 50)    
Moisture  
Dew Point 62 °F    
Average Humidity 74    
Maximum Humidity 90    
Minimum Humidity 60    
Precipitation  
Precipitation 0.00 in - - ()
Sea Level Pressure  
Sea Level Pressure 29.94 in    
Wind  
Wind Speed 6 mph (WNW)    
Max Wind Speed 12 mph    
Max Gust Speed 18 mph    
Visibility 10 miles    
Events      
Averages and records for this station are not official NWS values.
T = Trace of Precipitation, MM = Missing Value Source: NWS Daily Summary

Daily Weather History Graph

Daily Weather History Graph

Search for Another Location

Airport:

Trip Planner

Search our weather history database for the weather conditions in past years. The results will help you decide how hot, cold, wet, or windy it might be!

Date:

Astronomy

Apr. 23, 2014 Rise Set
Actual Time 6:58 AM EDT 8:00 PM EDT
Civil Twilight 6:33 AM EDT 8:24 PM EDT
Nautical Twilight 6:04 AM EDT 8:53 PM EDT
Astronomical Twilight 5:35 AM EDT 9:23 PM EDT
Moon 2:57 AM EDT (4/23) 2:37 PM EDT (4/23)
Length of Visible Light 13h 51m
Length of Day
13h 02m
Waning Crescent, 35% of the Moon is Illuminated
Apr 23
Waning Crescent
Apr 29
New
May 6
First Quarter
May 14
Full
May 21
Last Quarter

Hourly Weather History & Observations

Time (EDT) Temp. Dew Point Humidity Pressure Visibility Wind Dir Wind Speed Gust Speed Precip Events Conditions
12:53 AM 62.1 °F 57.9 °F 86% 29.93 in 10.0 mi West 3.5 mph - N/A   Clear
1:53 AM 64.0 °F 60.1 °F 87% 29.92 in 10.0 mi WSW 3.5 mph - N/A   Clear
2:53 AM 64.0 °F 60.1 °F 87% 29.91 in 10.0 mi SW 4.6 mph - N/A   Clear
3:53 AM 64.0 °F 60.1 °F 87% 29.90 in 10.0 mi WSW 5.8 mph - N/A   Partly Cloudy
4:53 AM 63.0 °F 60.1 °F 90% 29.90 in 10.0 mi WNW 3.5 mph - N/A   Clear
5:53 AM 64.9 °F 60.1 °F 84% 29.91 in 10.0 mi WNW 4.6 mph - N/A   Clear
6:53 AM 63.0 °F 59.0 °F 87% 29.93 in 10.0 mi NW 3.5 mph - N/A   Clear
7:53 AM 66.9 °F 62.1 °F 84% 29.95 in 10.0 mi West 5.8 mph - N/A   Partly Cloudy
8:53 AM 71.1 °F 63.0 °F 75% 29.96 in 10.0 mi WNW 9.2 mph - N/A   Partly Cloudy
9:11 AM 70.0 °F 62.1 °F 76% 29.96 in 10.0 mi WNW 8.1 mph - N/A   Mostly Cloudy
9:53 AM 73.0 °F 62.1 °F 68% 29.96 in 10.0 mi NW 6.9 mph - N/A   Mostly Cloudy
10:53 AM 73.9 °F 62.1 °F 66% 29.98 in 10.0 mi WNW 6.9 mph - N/A   Mostly Cloudy
11:39 AM 75.0 °F 62.1 °F 64% 29.98 in 10.0 mi WNW 6.9 mph - N/A   Mostly Cloudy
11:53 AM 75.0 °F 62.1 °F 64% 29.98 in 10.0 mi NNW 9.2 mph - N/A   Mostly Cloudy
12:53 PM 77.0 °F 62.1 °F 60% 29.96 in 10.0 mi NW 9.2 mph - N/A   Scattered Clouds
1:40 PM 77.0 °F 63.0 °F 62% 29.95 in 10.0 mi NNW 11.5 mph 18.4 mph N/A   Scattered Clouds
1:53 PM 75.9 °F 62.1 °F 62% 29.95 in 10.0 mi Variable 5.8 mph - N/A   Scattered Clouds
2:31 PM 77.0 °F 62.1 °F 60% 29.95 in 10.0 mi WNW 6.9 mph - N/A   Mostly Cloudy
2:46 PM 77.0 °F 62.1 °F 60% 29.94 in 10.0 mi West 8.1 mph - N/A   Scattered Clouds
2:53 PM 75.9 °F 61.0 °F 60% 29.94 in 10.0 mi West 4.6 mph - N/A   Partly Cloudy
3:53 PM 77.0 °F 62.6 °F 61% 29.92 in 10.0 mi NW 8.1 mph - N/A   Clear
4:53 PM 75.9 °F 61.0 °F 60% 29.91 in 10.0 mi WNW 9.2 mph - N/A   Clear
5:53 PM 75.0 °F 61.0 °F 62% 29.91 in 10.0 mi NW 10.4 mph - N/A   Clear
6:53 PM 73.0 °F 61.0 °F 66% 29.91 in 10.0 mi WNW 6.9 mph - N/A   Clear
7:53 PM 70.0 °F 62.1 °F 76% 29.93 in 10.0 mi WNW 6.9 mph - N/A   Clear
8:53 PM 68.0 °F 63.0 °F 84% 29.95 in 10.0 mi West 6.9 mph - N/A   Clear
9:53 PM 68.0 °F 63.0 °F 84% 29.96 in 10.0 mi West 4.6 mph - N/A   Clear
10:53 PM 66.9 °F 63.0 °F 87% 29.97 in 10.0 mi West 3.5 mph - N/A   Clear
11:53 PM 66.0 °F 62.1 °F 87% 29.97 in 9.0 mi West 3.5 mph - N/A   Clear